Regional Weather Roundup
Issued by NWS Goodland, KS

Home | Current Version | Previous Version | Graphics & Text | Print | Product List | Glossary On
Versions: 1 2 3 4 5 6 7 8 9 10 11 12 13 14 15 16 17 18 19 20 21 22 23 24 25 26 27 28 29 30 31 32 33 34 35 36 37 38 39 40 41 42 43 44 45 46 47 48 49 50
000
ASUS43 KGLD 030759
RWRGLD

GOODLAND FORECAST AREA HOURLY WEATHER ROUNDUP
NATIONAL WEATHER SERVICE GOODLAND KS
100 AM MST SAT DEC 03 2016

...OFFICIAL OBSERVATIONS...

CITY           SKY/WX    TMP DP  RH WIND       PRES   REMARKS
GOODLAND KS    NOT AVBL
HILL CITY KS   NOT AVBL
IMPERIAL NEB   PTCLDY    27  21  78 S7        30.22F
MCCOOK NEB     CLOUDY    30  22  72 S6        30.26F
AKRON CO       CLOUDY    27  19  72 S16       30.15F WCI  15
BURLINGTON CO  CLOUDY    32  21  64 S9        30.21F
LIMON CO       NOT AVBL
$$

...UNOFFICIAL OBSERVATIONS...

CITY           SKY/WX    TMP DP  RH WIND       PRES   REMARKS
COLBY KS       CLOUDY    36  23  60 CALM      30.25F
LENORA KS        N/A     31  32 100 MISG        N/A
NORTON KS      CLOUDY    28  21  74 SE3       30.28S
SHARON SPRINGS   N/A     32  18  55 CALM        N/A
TRENTON NEB      N/A     30  32 100 SW5         N/A
KIT CARSON CO    N/A     27  24  87 CALM        N/A
YUMA CO        MOCLDY    27  21  80 S12       30.18F WCI  16
$$



USA.gov is the U.S. government's official web portal to all federal, state and local government web resources and services.